sat.trackr.live / text

‹ back to catalog

ONEWEB-0043

NORAD 45149 · 2020-008U

PAYLOAD ACTIVE UNKNOWN

§ Identity

Operator
Country
UK
Launch date
2020-02-06
Launch site
TYMSC
Launch vehicle
Mass (kg)
RCS (m²)

Purposes: comms

External: N2YO · Heavens-Above · Gunter

§ Orbital elements

Epoch: 2026-09-20T02:46:51.612096Z

Period
109.89 min
Inclination
87.8912°
Eccentricity
0.0002252
Mean motion
13.10371336 rev/d
Perigee alt
1,220.0 km
Apogee alt
1,223.4 km
Semi-major
7,599.9 km
B*
-1.8591e-3
RAAN
17.3727°
Arg perigee
103.1848°
Mean anomaly
256.9531°
Rev number
32,061

§ Raw data

ONEWEB-00431 45149U 20008U   26263.11587514 -.00000636  00000+0 -18591-2 0  99962 45149  87.8912  17.3727 0002252 103.1848 256.9531 13.10371336320614

JSON: /api/v1/satellites/45149 · /tle

For live sub-satellite position, see the globe view (requires WebGL).

§ Visibility from observer

Set your observer location to see the next 7 days of passes ≥ 10°. The values pass through the URL so the page stays shareable.

No JS? Fill the form by hand. The geolocation button needs JavaScript.